Hourly Weather Callao

Today, 26 January, Tuesday

Time Temperature Precipitation Wind Pressure Humidity
00:00 +10°C° 0.2 mm 0 mps 540 mmHg 78%
01:00 +10°C° 0 mm 0 mps 540 mmHg 78%
02:00 +10°C° 0 mm 0 mps 539 mmHg 80%
03:00 +10°C° 0 mm 0 mps 539 mmHg 81%
04:00 +10°C° 0 mm 0 mps 538 mmHg 83%
05:00 +10°C° 0 mm 0 mps 539 mmHg 81%
06:00 +10°C° 0 mm 0 mps 539 mmHg 78%
07:00 +11°C° 0 mm 0 mps 540 mmHg 71%
08:00 +13°C° 0 mm 1 mps 541 mmHg 69%
09:00 +14°C° 0 mm 2 mps 541 mmHg 67%
10:00 +14°C° 0 mm 2 mps 542 mmHg 65%
11:00 +14°C° 0.3 mm 3 mps 541 mmHg 65%
12:00 +14°C° 0.3 mm 3 mps 541 mmHg 66%
13:00 +14°C° 0.3 mm 3 mps 541 mmHg 66%
14:00 +14°C° 0.1 mm 3 mps 540 mmHg 68%
15:00 +14°C° 0.1 mm 3 mps 540 mmHg 70%
16:00 +13°C° 0.1 mm 3 mps 539 mmHg 72%
17:00 +14°C° 0 mm 2 mps 540 mmHg 74%
18:00 +13°C° 0 mm 2 mps 540 mmHg 76%
19:00 +13°C° 0 mm 1 mps 540 mmHg 77%
20:00 +13°C° 0 mm 1 mps 540 mmHg 77%
21:00 +13°C° 0 mm 1 mps 541 mmHg 77%
22:00 +13°C° 0 mm 1 mps 541 mmHg 76%
23:00 +13°C° 0 mm 1 mps 541 mmHg 78%

Tomorrow, 27 January, Wednesday

Time Temperature Precipitation Wind Pressure Humidity
00:00 +11°C° 0 mm 0 mps 540 mmHg 80%
01:00 +11°C° 0 mm 0 mps 540 mmHg 82%
02:00 +11°C° 0 mm 0 mps 540 mmHg 84%
03:00 +11°C° 0 mm 0 mps 539 mmHg 85%
04:00 +11°C° 0 mm 0 mps 539 mmHg 86%
05:00 +11°C° 0 mm 0 mps 539 mmHg 85%
06:00 +11°C° 0 mm 0 mps 540 mmHg 84%
07:00 +11°C° 0 mm 0 mps 540 mmHg 82%
08:00 +13°C° 0 mm 1 mps 540 mmHg 79%
09:00 +14°C° 0 mm 2 mps 541 mmHg 76%
10:00 +14°C° 0 mm 3 mps 542 mmHg 73%
11:00 +14°C° 0.1 mm 3 mps 541 mmHg 75%
12:00 +14°C° 0.1 mm 3 mps 541 mmHg 76%
13:00 +14°C° 0.1 mm 4 mps 540 mmHg 77%
14:00 +13°C° 0.2 mm 4 mps 540 mmHg 78%
15:00 +13°C° 0.2 mm 3 mps 539 mmHg 80%
16:00 +13°C° 0.2 mm 3 mps 539 mmHg 82%
17:00 +12°C° 0.1 mm 3 mps 539 mmHg 84%
18:00 +13°C° 0.1 mm 2 mps 539 mmHg 86%
19:00 +12°C° 0.1 mm 1 mps 539 mmHg 88%
20:00 +12°C° 0 mm 1 mps 539 mmHg 88%
21:00 +12°C° 0 mm 1 mps 540 mmHg 88%
22:00 +12°C° 0 mm 1 mps 540 mmHg 89%
23:00 +11°C° 0 mm 0 mps 540 mmHg 88%

Day after tomorrow, 28 January, Thursday

Time Temperature Precipitation Wind Pressure Humidity
00:00 +11°C° 0 mm 0 mps 539 mmHg 88%
01:00 +11°C° 0 mm 0 mps 539 mmHg 87%
02:00 +10°C° 0 mm 0 mps 539 mmHg 87%
03:00 +10°C° 0 mm 0 mps 539 mmHg 87%
04:00 +10°C° 0 mm 0 mps 538 mmHg 87%
05:00 +10°C° 0 mm 0 mps 539 mmHg 85%
06:00 +10°C° 0 mm 0 mps 539 mmHg 83%
07:00 +11°C° 0 mm 0 mps 539 mmHg 81%
08:00 +13°C° 0 mm 1 mps 540 mmHg 78%
09:00 +14°C° 0 mm 2 mps 541 mmHg 76%
10:00 +14°C° 0 mm 3 mps 541 mmHg 73%
11:00 +14°C° 0.2 mm 3 mps 541 mmHg 73%
12:00 +14°C° 0.2 mm 3 mps 541 mmHg 73%
13:00 +14°C° 0.2 mm 4 mps 540 mmHg 74%
14:00 +14°C° 0.1 mm 4 mps 540 mmHg 73%
15:00 +13°C° 0.1 mm 3 mps 539 mmHg 72%
16:00 +13°C° 0.1 mm 3 mps 539 mmHg 71%
17:00 +12°C° 0.1 mm 3 mps 539 mmHg 75%
18:00 +13°C° 0.1 mm 2 mps 539 mmHg 79%
19:00 +12°C° 0.1 mm 1 mps 539 mmHg 83%
20:00 +12°C° 0 mm 1 mps 539 mmHg 83%
21:00 +12°C° 0 mm 1 mps 540 mmHg 83%
22:00 +11°C° 0 mm 0 mps 540 mmHg 83%
23:00 +10°C° 0 mm 0 mps 540 mmHg 85%

29 January, Friday

Time Temperature Precipitation Wind Pressure Humidity
00:00 +10°C° 0 mm 0 mps 539 mmHg 87%
01:00 +10°C° 0 mm 0 mps 539 mmHg 89%
02:00 +10°C° 0 mm 0 mps 539 mmHg 89%
03:00 +9°C° 0 mm 0 mps 538 mmHg 88%
04:00 +9°C° 0 mm 0 mps 538 mmHg 88%
05:00 +9°C° 0 mm 0 mps 538 mmHg 85%
06:00 +10°C° 0 mm 0 mps 538 mmHg 82%
07:00 +10°C° 0 mm 0 mps 539 mmHg 78%
08:00 +12°C° 0 mm 1 mps 539 mmHg 77%
09:00 +13°C° 0 mm 2 mps 540 mmHg 75%
10:00 +13°C° 0 mm 3 mps 541 mmHg 74%
11:00 +13°C° 0.1 mm 3 mps 540 mmHg 72%
12:00 +13°C° 0.1 mm 3 mps 540 mmHg 71%
13:00 +13°C° 0.1 mm 3 mps 540 mmHg 69%
14:00 +13°C° 0.1 mm 3 mps 539 mmHg 71%
15:00 +13°C° 0.1 mm 4 mps 539 mmHg 72%
16:00 +12°C° 0.1 mm 4 mps 539 mmHg 74%
17:00 +12°C° 0.3 mm 3 mps 538 mmHg 79%
18:00 +11°C° 0.3 mm 3 mps 538 mmHg 84%
19:00 +10°C° 0.3 mm 2 mps 538 mmHg 89%
20:00 +10°C° 0.1 mm 2 mps 539 mmHg 89%
21:00 +11°C° 0.1 mm 1 mps 539 mmHg 88%
22:00 +11°C° 0.1 mm 1 mps 540 mmHg 87%
23:00 +11°C° 0 mm 1 mps 539 mmHg 88%

30 January, Saturday

Time Temperature Precipitation Wind Pressure Humidity
00:00 +10°C° 0 mm 1 mps 539 mmHg 90%
01:00 +10°C° 0 mm 1 mps 539 mmHg 91%
02:00 +10°C° 0 mm 1 mps 538 mmHg 90%
03:00 +9°C° 0 mm 0 mps 538 mmHg 89%
04:00 +9°C° 0 mm 0 mps 538 mmHg 89%
05:00 +9°C° 0 mm 0 mps 538 mmHg 88%
06:00 +9°C° 0 mm 0 mps 538 mmHg 87%
07:00 +9°C° 0 mm 0 mps 539 mmHg 87%
08:00 +11°C° 0 mm 1 mps 539 mmHg 83%
09:00 +12°C° 0 mm 2 mps 540 mmHg 79%
10:00 +12°C° 0 mm 3 mps 541 mmHg 75%
11:00 +12°C° 0.1 mm 3 mps 540 mmHg 76%
12:00 +12°C° 0.1 mm 3 mps 540 mmHg 77%
13:00 +13°C° 0.1 mm 4 mps 540 mmHg 77%
14:00 +12°C° 0.4 mm 3 mps 539 mmHg 80%
15:00 +12°C° 0.4 mm 3 mps 539 mmHg 83%
16:00 +11°C° 0.4 mm 3 mps 538 mmHg 86%
17:00 +12°C° 1.3 mm 2 mps 538 mmHg 87%
18:00 +12°C° 1.3 mm 2 mps 538 mmHg 87%
19:00 +11°C° 1.3 mm 1 mps 539 mmHg 88%
20:00 +11°C° 0.5 mm 1 mps 539 mmHg 87%
21:00 +11°C° 0.5 mm 1 mps 539 mmHg 86%
22:00 +11°C° 0.5 mm 1 mps 540 mmHg 86%
23:00 +10°C° 0.2 mm 0 mps 540 mmHg 86%

31 January, Sunday

Time Temperature Precipitation Wind Pressure Humidity
00:00 +10°C° 0.2 mm 0 mps 539 mmHg 87%
01:00 +10°C° 0.2 mm 0 mps 539 mmHg 88%
02:00 +10°C° 0.1 mm 0 mps 539 mmHg 88%
03:00 +10°C° 0.1 mm 0 mps 539 mmHg 89%
04:00 +10°C° 0.1 mm 0 mps 539 mmHg 89%
05:00 +10°C° 0 mm 0 mps 539 mmHg 87%
06:00 +10°C° 0 mm 0 mps 539 mmHg 85%
07:00 +10°C° 0 mm 0 mps 540 mmHg 83%
08:00 +12°C° 0 mm 1 mps 540 mmHg 80%
09:00 +13°C° 0 mm 2 mps 541 mmHg 78%
10:00 +14°C° 0 mm 2 mps 541 mmHg 76%
11:00 +14°C° 0.3 mm 3 mps 541 mmHg 75%
12:00 +14°C° 0.3 mm 3 mps 541 mmHg 74%
13:00 +14°C° 0.3 mm 4 mps 541 mmHg 73%
14:00 +14°C° 0.3 mm 3 mps 540 mmHg 76%
15:00 +13°C° 0.3 mm 3 mps 539 mmHg 79%
16:00 +13°C° 0.3 mm 3 mps 539 mmHg 82%
17:00 +13°C° 0.3 mm 2 mps 539 mmHg 82%
18:00 +13°C° 0.3 mm 2 mps 539 mmHg 83%
19:00 +12°C° 0.3 mm 1 mps 539 mmHg 84%
20:00 +12°C° 0.8 mm 1 mps 540 mmHg 83%
21:00 +12°C° 0.8 mm 1 mps 540 mmHg 81%
22:00 +12°C° 0.8 mm 1 mps 541 mmHg 80%
23:00 +12°C° 0.2 mm 1 mps 540 mmHg 80%
Show more